Flag for Brazil Weather past 2 weeks in Feira de Santana, Bahia, Brazil

Now
81 °F

Broken clouds.


Feels Like: 83 °F
Forecast: 70 / 84 °F
Wind: 12 mph from Southeast

Location: Salvador Aeroporto

Current Time: Dec 26, 2014 at 4:27:00 PM

Latest Report: Dec 26, 2014 at 4:00 PM


Visibility: N/A

Pressure: 30.01 "Hg

Humidity: 62%

Dew point: 66 °F

Location of Feira de SantanaLocation

Historic Weather in Feira de Santana — Graph

°F

Feira de Santana temperature yesterday

Maximum temperature yesterday: 84 °F (at 9:00 AM)
Minimum temperature yesterday: 77 °F (at 3:00 AM)
Average temperature yesterday: 81 °F

Past Weeks' High & Low Weather Summary

 TemperatureHumidityPressure
High86 °F (Dec 24, 10:00 AM)100% (Dec 12, 10:00 AM)30.07 "Hg (Dec 12, 10:00 AM)
Low39 °F (Dec 18, 12:00 AM)58% (Dec 26, 10:00 AM)29.83 "Hg (Dec 14, 3:00 PM)
Average79 °F78%29.93 "Hg
* Reported Dec 11 3:00 PM — Dec 26 3:00 PM, Feira de Santana, Weather by CustomWeather, © 2014

Note: Actual official high and low records may vary slightly from our data, if they occured in-between our weather recording intervals... More about our weather records

Advertising

Feira de Santana weather history for previous 24 hours

 ConditionsComfort  
Time TempWeatherWind HumidityBarometerVisibility
3:00 PM
Dec 26
81 °FBroken clouds.15 mph66%30.01 "HgN/A
2:00 PM82 °FBroken clouds.17 mph66%30.04 "HgN/A
1:00 PM84 °FScattered clouds.15 mph58%30.04 "HgN/A
12:00 PM84 °FScattered clouds.14 mph58%30.07 "HgN/A
11:00 AM84 °FScattered clouds.16 mph58%30.07 "HgN/A
10:00 AM84 °FBroken clouds.15 mph58%30.07 "HgN/A
9:00 AM82 °FScattered clouds.17 mph62%30.07 "HgN/A
8:00 AM81 °FPartly sunny.13 mph70%30.07 "HgN/A
7:00 AM79 °FScattered clouds.13 mph74%30.04 "HgN/A
6:00 AM79 °FPartly cloudy.10 mph74%30.04 "HgN/A
5:00 AM77 °FPartly cloudy.13 mph83%30.01 "HgN/A
4:00 AM77 °FPartly cloudy.10 mph79%29.98 "HgN/A
3:00 AM75 °FFog.5 mphN/AN/A3 mi
2:00 AM79 °FPassing clouds.9 mph74%30.01 "HgN/A
1:00 AM79 °FPassing clouds.9 mph74%30.01 "HgN/A
12:00 AM79 °FPassing clouds.9 mph70%30.01 "HgN/A
11:00 PM
Dec 25
79 °FPassing clouds.12 mph74%30.04 "HgN/A
10:00 PM77 °FPassing clouds.16 mph79%30.04 "HgN/A
9:00 PM79 °FPassing clouds.13 mph70%30.04 "HgN/A
8:00 PM81 °FPassing clouds.9 mph70%30.04 "HgN/A
7:00 PM79 °FPassing clouds.7 mph74%30.01 "HgN/A
6:00 PM81 °FScattered clouds.10 mph70%29.98 "HgN/A
5:00 PM82 °FScattered clouds.14 mph70%29.98 "HgN/A
4:00 PM84 °FScattered clouds.14 mph66%29.98 "HgN/A
Weather by CustomWeather, © 2014

See weather overviewHow to use our weather pages